Weather History for KAXS - June, 2014

Change the Weather History Date:

Wednesday, June 25, 2014

  Actual Average (KLTS) Record (KLTS)
Temperature  
Mean Temperature 78 °F -  
Max Temperature 89 °F 89 °F 109 °F (2011)
Min Temperature 67 °F 68 °F 65 °F (2014)
Cooling Degree Days 13    
Growing Degree Days 28 (Base 50)    
Moisture  
Dew Point 66 °F    
Average Humidity 69    
Maximum Humidity 91    
Minimum Humidity 47    
Precipitation  
Precipitation 0.00 in - - ()
Sea Level Pressure  
Sea Level Pressure 30.03 in    
Wind  
Wind Speed 8 mph (SSE)    
Max Wind Speed 21 mph    
Max Gust Speed 20 mph    
Visibility 10 miles    
Events      
Averages and records for this station are not official NWS values.
T = Trace of Precipitation, MM = Missing Value Source: NWS Daily Summary

Daily Weather History Graph

Daily Weather History Graph

Search for Another Location

Airport or City:

Trip Planner

Search our weather history database for the weather conditions in past years. The results will help you decide how hot, cold, wet, or windy it might be!

Date:

Astronomy

Jun. 25, 2014 Rise Set
Actual Time 6:25 AM CDT 8:54 PM CDT
Civil Twilight 5:56 AM CDT 9:23 PM CDT
Nautical Twilight 5:19 AM CDT 10:00 PM CDT
Astronomical Twilight 4:39 AM CDT 10:40 PM CDT
Moon 5:14 AM CDT (6/25) 7:31 PM CDT (6/25)
Length of Visible Light 15h 27m
Length of Day
14h 28m
Waning Crescent, 3% of the Moon is Illuminated
Jun 25
Waning Crescent
Jun 27
New
Jul 5
First Quarter
Jul 12
Full
Jul 18
Last Quarter

Hourly Weather History & Observations

Time (CDT) Temp. Heat Index Dew Point Humidity Pressure Visibility Wind Dir Wind Speed Gust Speed Precip Events Conditions
12:15 AM 70.9 °F - 63.7 °F 78% 30.07 in 10.0 mi ESE 8.1 mph - N/A   Clear
12:35 AM 70.3 °F - 63.5 °F 79% 30.07 in 10.0 mi East 5.8 mph - N/A   Clear
12:55 AM 69.8 °F - 63.5 °F 80% 30.09 in 10.0 mi East 5.8 mph - N/A   Clear
1:15 AM 69.1 °F - 63.5 °F 82% 30.09 in 10.0 mi ENE 4.6 mph - N/A   Clear
1:35 AM 68.9 °F - 64.0 °F 84% 30.10 in 10.0 mi ENE 5.8 mph - N/A   Clear
1:55 AM 68.4 °F - 64.0 °F 86% 30.10 in 10.0 mi ENE 6.9 mph - N/A   Clear
2:15 AM 68.9 °F - 64.6 °F 86% 30.11 in 10.0 mi NNE 6.9 mph - N/A   Clear
2:35 AM 68.5 °F - 64.2 °F 86% 30.11 in 10.0 mi North 4.6 mph - N/A   Clear
2:55 AM 68.0 °F - 64.8 °F 89% 30.11 in 10.0 mi NW 4.6 mph - N/A   Clear
3:15 AM 68.0 °F - 64.8 °F 89% 30.10 in 10.0 mi NW 9.2 mph - N/A   Clear
3:35 AM 67.6 °F - 64.6 °F 90% 30.08 in 10.0 mi NNW 5.8 mph - N/A   Clear
3:55 AM 67.1 °F - 64.4 °F 91% 30.05 in 10.0 mi Calm Calm - N/A   Clear
4:15 AM 67.3 °F - 64.4 °F 90% 30.02 in 10.0 mi SSE 6.9 mph - N/A   Clear
4:35 AM 68.0 °F - 64.9 °F 90% 30.02 in 10.0 mi SSE 5.8 mph - N/A   Clear
4:55 AM 68.2 °F - 65.3 °F 90% 29.98 in 10.0 mi SSE 15.0 mph - N/A   Clear
5:15 AM 68.5 °F - 64.9 °F 88% 30.00 in 10.0 mi South 6.9 mph - N/A   Clear
5:35 AM 69.3 °F - 64.6 °F 85% 30.02 in 10.0 mi SE 10.4 mph - N/A   Clear
6:00 AM 68.9 °F - 64.8 °F 87% 30.03 in 10.0 mi South 8.1 mph - N/A   Clear
6:15 AM 68.4 °F - 64.4 °F 87% 30.06 in 10.0 mi NW 3.5 mph - N/A   Clear
6:35 AM 68.4 °F - 64.8 °F 88% 30.07 in 10.0 mi West 4.6 mph - N/A   Clear
6:55 AM 68.0 °F - 64.6 °F 89% 30.08 in 10.0 mi NW 3.5 mph - N/A   Clear
7:15 AM 68.5 °F - 65.3 °F 89% 30.08 in 10.0 mi Calm Calm - N/A   Clear
7:55 AM 71.1 °F - 64.8 °F 80% 30.09 in 10.0 mi Calm Calm - N/A   Clear
8:15 AM 71.8 °F - 64.6 °F 78% 30.09 in 10.0 mi Calm Calm - N/A   Clear
8:35 AM 72.9 °F - 64.6 °F 75% 30.09 in 10.0 mi Calm Calm - N/A   Clear
8:55 AM 73.4 °F - 65.1 °F 75% 30.09 in 10.0 mi SSW 4.6 mph - N/A   Clear
9:15 AM 74.8 °F - 65.3 °F 72% 30.09 in 10.0 mi South 6.9 mph - N/A   Clear
9:35 AM 74.7 °F - 64.6 °F 71% 30.08 in 10.0 mi South 10.4 mph - N/A   Clear
10:00 AM 75.4 °F - 65.3 °F 71% 30.07 in 10.0 mi South 11.5 mph - N/A   Clear
10:15 AM 76.5 °F - 66.0 °F 70% 30.05 in 10.0 mi SSE 13.8 mph - N/A   Clear
10:35 AM 77.2 °F - 65.5 °F 67% 30.03 in 10.0 mi SSE 13.8 mph - N/A   Clear
10:55 AM 78.8 °F - 67.1 °F 67% 30.01 in 10.0 mi ESE 15.0 mph 18.4 mph N/A   Clear
11:15 AM 79.9 °F - 67.5 °F 66% 30.02 in 10.0 mi SE 15.0 mph - N/A   Clear
11:35 AM 79.5 °F - 66.7 °F 65% 30.03 in 10.0 mi SE 12.7 mph - N/A   Clear
11:55 AM 79.3 °F - 66.9 °F 66% 30.04 in 10.0 mi SSE 11.5 mph - N/A   Clear
12:15 PM 79.7 °F - 66.4 °F 64% 30.04 in 10.0 mi South 11.5 mph - N/A   Clear
12:35 PM 80.8 °F 83.2 °F 67.1 °F 63% 30.05 in 10.0 mi SSE 11.5 mph - N/A   Clear
12:55 PM 81.0 °F 83.3 °F 66.9 °F 62% 30.05 in 10.0 mi SW 9.2 mph 16.1 mph N/A   Clear
1:15 PM 81.0 °F 83.2 °F 66.6 °F 61% 30.04 in 10.0 mi SSW 11.5 mph - N/A   Clear
1:35 PM 82.2 °F 84.9 °F 67.6 °F 61% 30.04 in 10.0 mi South 8.1 mph - N/A   Clear
1:55 PM 82.0 °F 84.7 °F 67.3 °F 61% 30.03 in 10.0 mi SSW 8.1 mph - N/A   Clear
2:15 PM 83.5 °F 86.7 °F 68.4 °F 60% 30.02 in 10.0 mi South 9.2 mph - N/A   Clear
2:35 PM 84.2 °F 87.3 °F 68.0 °F 58% 30.02 in 10.0 mi SSW 10.4 mph - N/A   Clear
2:55 PM 84.6 °F 88.2 °F 68.7 °F 59% 30.01 in 10.0 mi Calm Calm - N/A   Clear
3:15 PM 86.0 °F 89.4 °F 68.4 °F 55% 30.01 in 10.0 mi SSW 6.9 mph - N/A   Clear
3:35 PM 85.8 °F 89.4 °F 68.5 °F 56% 30.00 in 10.0 mi South 4.6 mph - N/A   Clear
3:55 PM 86.9 °F 90.6 °F 68.5 °F 54% 29.99 in 10.0 mi South 5.8 mph - N/A   Clear
4:15 PM 87.4 °F 91.2 °F 68.2 °F 53% 29.98 in 10.0 mi South 9.2 mph - N/A   Clear
4:35 PM 88.5 °F 92.7 °F 68.7 °F 52% 29.97 in 10.0 mi SSE 6.9 mph - N/A   Scattered Clouds
4:55 PM 88.5 °F 92.7 °F 68.7 °F 52% 29.96 in 10.0 mi SSE 9.2 mph - N/A   Scattered Clouds
5:15 PM 88.5 °F 92.7 °F 68.7 °F 52% 29.96 in 10.0 mi ESE 8.1 mph - N/A   Clear
5:35 PM 89.1 °F 92.5 °F 67.5 °F 49% 29.95 in 10.0 mi South 9.2 mph - N/A   Clear
5:55 PM 89.2 °F 92.8 °F 68.0 °F 49% 29.94 in 10.0 mi SSE 5.8 mph - N/A   Clear
6:15 PM 88.7 °F 91.9 °F 67.5 °F 49% 29.94 in 10.0 mi SSE 8.1 mph - N/A   Clear
6:35 PM 89.1 °F 91.7 °F 66.4 °F 47% 29.93 in 10.0 mi South 5.8 mph - N/A   Clear
6:55 PM 88.7 °F 91.1 °F 66.0 °F 47% 29.93 in 10.0 mi SSE 8.1 mph - N/A   Clear
7:15 PM 88.7 °F 91.5 °F 66.9 °F 48% 29.94 in 10.0 mi SE 9.2 mph - N/A   Clear
7:35 PM 88.0 °F 90.3 °F 66.0 °F 48% 29.95 in 10.0 mi SSE 11.5 mph - N/A   Clear
7:55 PM 87.3 °F 89.5 °F 66.2 °F 49% 29.95 in 10.0 mi SSE 10.4 mph - N/A   Clear
8:20 PM 86.5 °F 90.0 °F 68.0 °F 54% 29.95 in 10.0 mi SE 9.2 mph - N/A   Clear
8:35 PM 86.0 °F 89.1 °F 67.5 °F 54% 29.96 in 10.0 mi SSE 20.7 mph - N/A   Clear
8:55 PM 82.6 °F 85.1 °F 66.7 °F 59% 29.97 in 10.0 mi SSE 13.8 mph - N/A   Clear
9:20 PM 80.4 °F 82.4 °F 65.7 °F 61% 29.97 in 7.0 mi SSE 16.1 mph - N/A   Clear
9:35 PM 79.3 °F - 65.5 °F 62% 29.98 in 10.0 mi SSE 16.1 mph 19.6 mph N/A   Clear
10:15 PM 77.0 °F - 64.8 °F 66% 29.99 in 10.0 mi SE 9.2 mph - N/A   Clear
10:35 PM 76.5 °F - 65.3 °F 68% 30.00 in 10.0 mi SSE 9.2 mph - N/A   Clear
11:15 PM 75.0 °F - 66.0 °F 73% 30.00 in 10.0 mi SE 8.1 mph - N/A   Clear
11:35 PM 74.8 °F - 66.2 °F 74% 29.99 in 10.0 mi SE 10.4 mph - N/A   Clear